Tracking 27402 objects as of 2-Jun-2023
HD Live streaming from Space Station
objects crossing your sky now

USA 24

Track USA 24 now!
10-day predictions
USA 24 is classified as:


NORAD ID: 18010
Int'l Code: 1987-043F
Perigee: 371.2 km
Apogee: 1,742.7 km
Inclination: 63.3 °
Period: 106.2 minutes
Semi major axis: 7427 km
RCS: Unknown
Launch date: May 15, 1987
Source: United States (US)
Launch site: AIR FORCE WESTERN TEST RANGE (AFWTR)
Your satellite tracking list
Your tracking list is empty




NASA's NSSDC Master Catalog

Two Line Element Set (TLE):
1 18010U 87043F   23153.39828193  .00008825  00000-0  56777-3 0  9997
2 18010  63.2927 160.9267 0923207  83.5252 286.9921 13.56132351193055
Source of the keplerian elements: McCants